Fort Payne, AL

2:41 PM CST on December 03, 2016 (GMT -0600)
Fort Payne

Weather History for K4A9 - July, 2013

Change the Weather History Date:

Thursday, July 11, 2013

  Actual Average (KRMG) Record (KRMG)
Temperature  
Mean Temperature 77 °F 79 °F  
Max Temperature 86 °F 90 °F 99 °F (2010)
Min Temperature 68 °F 69 °F 61 °F (1996)
Cooling Degree Days 12 14  
Month to date cooling degree days 154  
Year to date cooling degree days 652  
Since 1 June cooling degree days 484  
Growing Degree Days 27 (Base 50)    
Moisture  
Dew Point 69 °F    
Average Humidity 81    
Maximum Humidity 94    
Minimum Humidity 58    
Precipitation  
Precipitation 0.02 in 0.15 in 0.90 in (2005)
Month to date precipitation 1.87  
Year to date precipitation 28.84  
Sea Level Pressure  
Sea Level Pressure 29.96 in    
Wind  
Wind Speed 2 mph (WSW)    
Max Wind Speed 8 mph    
Max Gust Speed -    
Visibility 9 miles    
Events Rain , Thunderstorm    
T = Trace of Precipitation, MM = Missing Value Source: NWS Daily Summary

Daily Weather History Graph

Daily Weather History Graph

Search for Another Location

Airport or City:

Trip Planner

Search our weather history database for the weather conditions in past years. The results will help you decide how hot, cold, wet, or windy it might be!

Date:

Astronomy

Jul. 11, 2013 Rise Set
Actual Time 5:39 AM CDT 7:57 PM CDT
Civil Twilight 5:10 AM CDT 8:26 PM CDT
Nautical Twilight 4:34 AM CDT 9:01 PM CDT
Astronomical Twilight 3:56 AM CDT 9:40 PM CDT
Moon 8:47 AM CDT (7/11) 9:49 PM CDT (7/11)
Length of Visible Light 15h 15m
Length of Day
14h 18m
Waxing Crescent, 11% of the Moon is Illuminated
Jul 11
Waxing Crescent
Jul 15
First Quarter
Jul 22
Full
Jul 29
Last Quarter
Aug 6
New

Hourly Weather History & Observations

Time (CDT) Temp. Heat Index Dew Point Humidity Pressure Visibility Wind Dir Wind Speed Gust Speed Precip Events Conditions
12:15 AM - - - N/A% 30.03 in 7.0 mi Calm Calm - N/A Rain Rain
12:35 AM - - - N/A% 30.01 in 5.0 mi SSW 4.6 mph - 0.01 in Rain Rain
12:55 AM - - - N/A% 30.01 in 7.0 mi SW 5.8 mph - 0.01 in Rain , Thunderstorm Thunderstorms and Rain
1:15 AM 69.8 °F - 68.0 °F 94% 30.00 in 7.0 mi Calm Calm - N/A Rain Rain
1:35 AM 69.8 °F - 66.2 °F 88% 30.01 in 10.0 mi West 3.5 mph - N/A Rain Rain
1:55 AM 69.8 °F - 66.2 °F 88% 29.99 in 10.0 mi Calm Calm - 0.01 in Rain Light Rain
2:15 AM 69.8 °F - 66.2 °F 88% 29.98 in 10.0 mi Calm Calm - N/A Rain Light Rain
2:35 AM 69.8 °F - 66.2 °F 88% 29.97 in 10.0 mi Calm Calm - N/A Rain Light Rain
2:55 AM 69.8 °F - 68.0 °F 94% 29.96 in 10.0 mi Calm Calm - N/A Rain Light Rain
3:15 AM 69.8 °F - 68.0 °F 94% 29.96 in 7.0 mi West 4.6 mph - N/A   Light Drizzle
3:35 AM 69.8 °F - 66.2 °F 88% 29.96 in 7.0 mi Calm Calm - N/A   Overcast
3:55 AM 69.8 °F - 68.0 °F 94% 29.96 in 7.0 mi Calm Calm - N/A   Overcast
4:15 AM 69.8 °F - 68.0 °F 94% 29.96 in 7.0 mi Calm Calm - N/A   Overcast
4:35 AM 69.8 °F - 66.2 °F 88% 29.97 in 7.0 mi Calm Calm - N/A   Overcast
4:55 AM 69.8 °F - 66.2 °F 88% 29.97 in 5.0 mi Calm Calm - N/A   Overcast
5:15 AM 69.8 °F - 66.2 °F 88% 29.98 in 3.0 mi Calm Calm - N/A   Overcast
5:35 AM 68.0 °F - 66.2 °F 94% 29.98 in 7.0 mi Calm Calm - N/A   Overcast
5:55 AM 68.0 °F - 66.2 °F 94% 29.98 in 5.0 mi Calm Calm - N/A   Overcast
6:15 AM 69.8 °F - 66.2 °F 88% 29.98 in 4.0 mi Calm Calm - N/A   Overcast
6:35 AM 68.0 °F - 66.2 °F 94% 29.98 in 7.0 mi Calm Calm - N/A   Mostly Cloudy
6:55 AM 69.8 °F - 68.0 °F 94% 29.99 in 10.0 mi Calm Calm - N/A   Mostly Cloudy
7:15 AM 69.8 °F - 68.0 °F 94% 29.99 in 7.0 mi WSW 5.8 mph - N/A   Overcast
7:35 AM 69.8 °F - 68.0 °F 94% 30.00 in 10.0 mi SW 6.9 mph - N/A   Overcast
7:55 AM 69.8 °F - 68.0 °F 94% 30.00 in 10.0 mi SSW 6.9 mph - N/A   Overcast
8:15 AM 69.8 °F - 68.0 °F 94% 30.01 in 7.0 mi SW 4.6 mph - N/A   Overcast
8:35 AM 69.8 °F - 68.0 °F 94% 30.01 in 10.0 mi South 3.5 mph - N/A   Overcast
8:55 AM 69.8 °F - 68.0 °F 94% 30.01 in 10.0 mi SSW 3.5 mph - N/A   Overcast
9:15 AM 69.8 °F - 68.0 °F 94% 30.00 in 10.0 mi Calm Calm - N/A   Overcast
9:35 AM 71.6 °F - 68.0 °F 88% 30.00 in 10.0 mi WSW 3.5 mph - N/A   Overcast
9:55 AM 73.4 °F - 69.8 °F 88% 30.00 in 10.0 mi West 3.5 mph - N/A   Overcast
10:15 AM 73.4 °F - 68.0 °F 83% 30.00 in 10.0 mi Calm Calm - N/A   Overcast
10:35 AM 73.4 °F - 68.0 °F 83% 30.00 in 10.0 mi West 3.5 mph - N/A   Overcast
10:55 AM 75.2 °F - 68.0 °F 78% 30.00 in 10.0 mi Calm Calm - N/A   Overcast
11:15 AM 77.0 °F - 68.0 °F 74% 30.00 in 10.0 mi Calm Calm - N/A   Overcast
11:35 AM 77.0 °F - 68.0 °F 74% 29.99 in 10.0 mi Calm Calm - N/A   Overcast
11:55 AM 77.0 °F - 68.0 °F 74% 29.99 in 10.0 mi Calm Calm - N/A   Overcast
12:15 PM 77.0 °F - 68.0 °F 74% 29.98 in 10.0 mi Calm Calm - N/A   Overcast
12:35 PM 78.8 °F - 69.8 °F 74% 29.98 in 10.0 mi Calm Calm - N/A   Overcast
12:55 PM 78.8 °F - 69.8 °F 74% 29.98 in 10.0 mi Calm Calm - N/A   Mostly Cloudy
1:15 PM 80.6 °F 83.2 °F 68.0 °F 65% 29.97 in 10.0 mi Calm Calm - N/A   Overcast
1:35 PM 80.6 °F 83.9 °F 69.8 °F 70% 29.97 in 10.0 mi Calm Calm - N/A   Overcast
1:55 PM 80.6 °F 83.2 °F 68.0 °F 65% 29.96 in 10.0 mi Calm Calm - N/A   Mostly Cloudy
2:15 PM 82.4 °F 85.4 °F 68.0 °F 62% 29.95 in 10.0 mi Calm Calm - N/A   Clear
2:35 PM 84.2 °F 88.4 °F 69.8 °F 62% 29.95 in 10.0 mi WSW 4.6 mph - N/A   Scattered Clouds
2:55 PM 82.4 °F 86.3 °F 69.8 °F 66% 29.94 in 10.0 mi WSW 3.5 mph - N/A   Mostly Cloudy
3:15 PM 82.4 °F 86.3 °F 69.8 °F 66% 29.94 in 10.0 mi West 5.8 mph - N/A   Scattered Clouds
3:35 PM 84.2 °F 88.4 °F 69.8 °F 62% 29.93 in 10.0 mi West 3.5 mph - N/A   Clear
3:55 PM 84.2 °F 88.4 °F 69.8 °F 62% 29.93 in 10.0 mi SW 5.8 mph - N/A   Clear
4:15 PM 84.2 °F 88.4 °F 69.8 °F 62% 29.92 in 10.0 mi West 6.9 mph - N/A   Scattered Clouds
4:35 PM 86.0 °F 90.4 °F 69.8 °F 58% 29.92 in 10.0 mi West 5.8 mph - N/A   Scattered Clouds
4:55 PM 84.2 °F 88.4 °F 69.8 °F 62% 29.92 in 10.0 mi WSW 5.8 mph - N/A   Clear
5:15 PM 84.2 °F 88.4 °F 69.8 °F 62% 29.91 in 10.0 mi West 3.5 mph - N/A   Mostly Cloudy
5:35 PM 84.2 °F 88.4 °F 69.8 °F 62% 29.91 in 10.0 mi West 8.1 mph - N/A   Scattered Clouds
5:55 PM 84.2 °F 88.4 °F 69.8 °F 62% 29.90 in 10.0 mi West 5.8 mph - N/A   Clear
6:15 PM 84.2 °F 88.4 °F 69.8 °F 62% 29.90 in 10.0 mi West 4.6 mph - N/A   Clear
6:35 PM 82.4 °F 86.3 °F 69.8 °F 66% 29.90 in 10.0 mi WNW 3.5 mph - N/A   Clear
6:55 PM 82.4 °F 86.3 °F 69.8 °F 66% 29.90 in 10.0 mi Calm Calm - N/A   Clear
7:15 PM 80.6 °F 84.6 °F 71.6 °F 74% 29.91 in 10.0 mi Calm Calm - N/A   Clear
7:35 PM 78.8 °F - 71.6 °F 78% 29.91 in 10.0 mi Calm Calm - N/A   Clear
7:55 PM 78.8 °F - 71.6 °F 78% 29.91 in 10.0 mi Calm Calm - N/A   Clear
8:15 PM 77.0 °F - 71.6 °F 83% 29.91 in 10.0 mi Calm Calm - N/A Thunderstorm Scattered Clouds
8:35 PM 77.0 °F - 71.6 °F 83% 29.91 in 10.0 mi Calm Calm - N/A   Clear
8:55 PM 77.0 °F - 71.6 °F 83% 29.91 in 10.0 mi Calm Calm - N/A   Clear
9:15 PM 77.0 °F - 71.6 °F 83% 29.91 in 10.0 mi Calm Calm - N/A   Clear
9:35 PM 77.0 °F - 71.6 °F 83% 29.92 in 10.0 mi Calm Calm - N/A   Scattered Clouds
9:55 PM 75.2 °F - 71.6 °F 89% 29.92 in 10.0 mi Calm Calm - N/A   Mostly Cloudy
10:15 PM 75.2 °F - 71.6 °F 89% 29.93 in 10.0 mi Calm Calm - N/A   Scattered Clouds
10:35 PM 73.4 °F - 71.6 °F 94% 29.92 in 7.0 mi NE 3.5 mph - N/A   Scattered Clouds
10:55 PM 75.2 °F - 71.6 °F 89% 29.92 in 10.0 mi Calm Calm - N/A   Scattered Clouds
11:15 PM 73.4 °F - 69.8 °F 88% 29.92 in 7.0 mi ESE 5.8 mph - N/A   Clear
11:35 PM 73.4 °F - 69.8 °F 88% 29.93 in 7.0 mi Calm Calm - N/A   Clear
11:55 PM 73.4 °F - 69.8 °F 88% 29.93 in 7.0 mi Calm Calm - N/A   Clear